Weather History for Morgantown, WV

Change the Weather History Date:

Monday, December 6, 1999

  Actual Average Record
Temperature  
Mean Temperature 42 °F 37 °F  
Max Temperature 51 °F 45 °F 73 °F (1998)
Min Temperature 33 °F 30 °F 9 °F (2007)
Degree Days  
Heating Degree Days 23 28  
Month to date heating degree days 161  
Since 1 July heating degree days 1209  
Cooling Degree Days 0 0  
Month to date cooling degree days 0  
Year to date cooling degree days 814  
Moisture  
Dew Point 38 °F    
Average Humidity 86    
Maximum Humidity 100    
Minimum Humidity 74    
Precipitation  
Precipitation 0.01 in 0.11 in 1.09 in (2013)
Month to date precipitation 0.62  
Year to date precipitation 39.54  
Sea Level Pressure  
Sea Level Pressure 30.00 in    
Wind  
Wind Speed 6 mph (WSW)    
Max Wind Speed 9 mph    
Max Gust Speed 16 mph    
Visibility 10 miles    
Events Rain , Snow    
T = Trace of Precipitation, MM = Missing Value Source: NWS Daily Summary

Daily Weather History Graph

Daily Weather History Graph

Search for Another Location

Airport:

Trip Planner

Search our weather history database for the weather conditions in past years. The results will help you decide how hot, cold, wet, or windy it might be!

Date:

Astronomy

Dec. 06, 1999 Rise Set
Actual Time 7:25 AM EST 4:55 PM EST
Civil Twilight 6:55 AM EST 5:25 PM EST
Nautical Twilight 6:22 AM EST 5:58 PM EST
Astronomical Twilight 5:49 AM EST 6:31 PM EST
Moon 5:59 AM EST (12/6) 4:29 PM EST (12/6)
Length of Visible Light 10h 29m
Length of Day
9h 29m
Waning Crescent, 1% of the Moon is Illuminated
Dec 6
Waning Crescent
Dec 7
New
Dec 15
First Quarter
Dec 22
Full
Dec 29
Last Quarter

Hourly Weather History & Observations

Time (EST) Temp. Windchill Dew Point Humidity Pressure Visibility Wind Dir Wind Speed Gust Speed Precip Events Conditions
12:53 AM 51.1 °F - 48.0 °F 89% 29.87 in 10.0 mi SW 4.6 mph - 0.00 in   Overcast
1:32 AM 50.0 °F - 48.2 °F 94% 29.87 in 10.0 mi Calm Calm - 0.00 in   Overcast
1:53 AM 50.0 °F - 48.9 °F 96% 29.86 in 10.0 mi Variable 3.5 mph - 0.00 in   Overcast
2:53 AM 51.1 °F - 48.9 °F 92% 29.87 in 10.0 mi SSW 4.6 mph - N/A   Overcast
3:00 AM 51.8 °F - 48.2 °F 88% 29.88 in 10.0 mi SSW 4.6 mph - N/A   Overcast
3:53 AM 50.0 °F - 48.0 °F 93% 29.87 in 10.0 mi SSW 3.5 mph - N/A   Overcast
4:53 AM 51.1 °F - 48.0 °F 89% 29.87 in 10.0 mi SW 4.6 mph - N/A   Overcast
5:15 AM 51.8 °F - 46.4 °F 82% 29.87 in 10.0 mi SW 6.9 mph - N/A   Overcast
5:22 AM 51.8 °F - 46.4 °F 82% 29.87 in 10.0 mi SW 8.1 mph - N/A   Overcast
5:53 AM 51.1 °F - 46.0 °F 83% 29.88 in 10.0 mi WSW 8.1 mph - N/A   Overcast
6:25 AM 50.0 °F - 44.6 °F 82% 29.89 in 10.0 mi SW 8.1 mph 16.1 mph N/A   Overcast
6:40 AM 50.0 °F - 44.6 °F 82% 29.90 in 10.0 mi WSW 5.8 mph - N/A   Overcast
6:53 AM 50.0 °F - 43.0 °F 77% 29.90 in 10.0 mi SW 9.2 mph - N/A   Mostly Cloudy
7:17 AM 50.0 °F - 42.8 °F 76% 29.91 in 10.0 mi WSW 6.9 mph - N/A   Overcast
7:53 AM 48.9 °F - 43.0 °F 80% 29.93 in 10.0 mi SW 6.9 mph - N/A   Overcast
8:53 AM 48.9 °F - 41.0 °F 74% 29.94 in 10.0 mi WSW 6.9 mph - N/A   Overcast
9:53 AM 48.0 °F - 39.9 °F 74% 29.94 in 10.0 mi WSW 9.2 mph - 0.00 in Rain Light Rain
10:53 AM 48.0 °F - 39.9 °F 74% 29.94 in 10.0 mi West 8.1 mph - 0.00 in   Overcast
11:53 AM 46.9 °F - 39.0 °F 74% 29.93 in 10.0 mi SW 8.1 mph - N/A   Overcast
12:30 PM 44.6 °F 40.2 °F 41.0 °F 87% 29.93 in 10.0 mi NW 8.1 mph 16.1 mph 0.00 in Rain Light Rain
12:53 PM 44.1 °F 39.0 °F 39.0 °F 82% 29.94 in 10.0 mi WNW 9.2 mph - 0.00 in   Overcast
1:17 PM 42.8 °F 37.5 °F 37.4 °F 81% 29.94 in 10.0 mi NW 9.2 mph - N/A   Overcast
1:53 PM 39.9 °F 34.5 °F 36.0 °F 86% 29.97 in 10.0 mi NW 8.1 mph - N/A   Overcast
2:26 PM 37.4 °F 32.8 °F 35.6 °F 93% 29.97 in 8.0 mi Variable 5.8 mph - 0.00 in Rain Light Rain
2:53 PM 37.9 °F 33.5 °F 36.0 °F 93% 30.01 in 10.0 mi Variable 5.8 mph - 0.00 in   Overcast
3:34 PM 37.4 °F 32.1 °F 33.8 °F 87% 30.01 in 10.0 mi Variable 6.9 mph - N/A   Overcast
3:53 PM 37.0 °F 33.3 °F 34.0 °F 89% 30.04 in 10.0 mi NW 4.6 mph - 0.00 in   Overcast
4:05 PM 37.4 °F 32.8 °F 33.8 °F 87% 30.03 in 10.0 mi NW 5.8 mph - N/A   Overcast
4:16 PM 37.4 °F 33.8 °F 33.8 °F 87% 30.04 in 9.0 mi Variable 4.6 mph - 0.00 in Rain Light Rain
4:53 PM 35.1 °F 30.1 °F 33.1 °F 92% 30.08 in 5.0 mi West 5.8 mph - 0.00 in Snow Light Snow
5:22 PM 33.8 °F 27.7 °F 33.8 °F 100% 30.08 in 9.0 mi WNW 6.9 mph - 0.00 in Snow Light Snow
5:31 PM 33.8 °F 27.0 °F 33.8 °F 100% 30.08 in 6.0 mi West 8.1 mph - 0.00 in Snow Light Snow
5:53 PM 33.1 °F 26.9 °F 32.0 °F 96% 30.12 in 4.0 mi West 6.9 mph - 0.01 in Snow Light Snow
6:11 PM 33.8 °F 30.8 °F 30.2 °F 87% 30.10 in 9.0 mi Variable 3.5 mph - 0.00 in Snow Light Snow
6:53 PM 33.1 °F 28.7 °F 30.0 °F 89% 30.14 in 9.0 mi West 4.6 mph - 0.00 in Snow Light Snow
7:18 PM 33.8 °F 30.8 °F 30.2 °F 87% 30.12 in 10.0 mi WNW 3.5 mph - N/A   Overcast
7:53 PM 33.1 °F 28.7 °F 30.0 °F 89% 30.15 in 10.0 mi Variable 4.6 mph - N/A   Overcast
8:53 PM 33.1 °F 30.0 °F 30.0 °F 89% 30.16 in 10.0 mi WNW 3.5 mph - N/A   Overcast
9:07 PM 33.8 °F 30.8 °F 30.2 °F 87% 30.14 in 10.0 mi Variable 3.5 mph - N/A   Overcast
9:31 PM 33.8 °F 27.7 °F 28.4 °F 81% 30.14 in 10.0 mi West 6.9 mph - N/A   Overcast
9:53 PM 33.1 °F 26.1 °F 28.9 °F 85% 30.17 in 10.0 mi West 8.1 mph - N/A   Overcast
10:17 PM 33.8 °F 28.6 °F 28.4 °F 81% 30.15 in 10.0 mi West 5.8 mph - N/A   Overcast
10:38 PM 33.8 °F 30.8 °F 28.4 °F 81% 30.15 in 10.0 mi Variable 3.5 mph - N/A   Overcast
10:53 PM 33.1 °F 28.7 °F 28.0 °F 82% 30.18 in 10.0 mi Variable 4.6 mph - N/A   Overcast
11:53 PM 33.1 °F 27.7 °F 28.0 °F 82% 30.19 in 9.0 mi WSW 5.8 mph - 0.00 in Snow Light Snow